Regional Weather Roundup
Issued by NWS Green Bay, WI

Home | Current Version | Previous Version | Graphics & Text | Print | Product List | Glossary Off
Versions: 1 2 3 4 5 6 7 8 9 10 11 12 13 14 15 16 17 18 19 20 21 22 23 24 25 26 27 28 29 30 31 32 33 34 35 36 37 38 39 40 41 42 43 44 45 46 47 48 49 50

000
ASUS43 KGRB 231311
RWRGRB

NORTH-CENTRAL AND NORTHEAST WISCONSIN REGIONAL WEATHER ROUNDUP
NATIONAL WEATHER SERVICE GREEN BAY WI
700 AM CST THU FEB 23 2017

WIZ005-009-010>012-018-019-231400-
NORTH CENTRAL WISCONSIN

CITY           SKY/WX    TMP DP  RH WIND       PRES   REMARKS
IRONWOOD       CLOUDY    30  29  96 CALM      29.87R
MANITOWISH WTR LGT SNOW  29  29 100 N3        29.83R
ARBOR VITAE    CLOUDY    32  30  93 N8          N/A
EAGLE RIVER    CLOUDY    29  27  94 N8        29.81R
LAND O LAKES   CLOUDY    29  27  91 N8        29.83R
RHINELANDER    CLOUDY    31  27  85 N10G18    29.79R
PHILLIPS       CLOUDY    30  29  96 N7G20     29.80F
ANTIGO         CLOUDY    31  28  90 N8        29.79R
TOMAHAWK       CLOUDY    31  27  83 N10       29.81R
MERRILL        NOT AVBL
$$

WIZ013-073-231400-
NORTHEAST WISCONSIN

CITY           SKY/WX    TMP DP  RH WIND       PRES   REMARKS
IRON MOUNTAIN  CLOUDY    32  26  78 N17       29.76R
MARINETTE      MOCLDY    35  29  78 N10G17    29.77R
OCONTO         CLOUDY    36  30  80 NW6       29.79R
$$

WIZ017-030-035>037-045-231400-
CENTRAL WISCONSIN

CITY           SKY/WX    TMP DP  RH WIND       PRES   REMARKS
MEDFORD        CLOUDY    32  28  84 N14       29.82R
WAUSAU         CLOUDY    33  28  81 NW10G18   29.80R
MOSINEE        CLOUDY    34  30  86 NW10      29.82R
MARSHFIELD     MOCLDY    33  28  81 N10       29.81R
WISC RAPIDS    PTCLDY    34  30  85 N9        29.82R
STEVENS POINT  CLOUDY    33  30  90 NW7       29.81R
WAUPACA        MOCLDY    39  32  76 NW5       29.80R
SHAWANO        CLEAR     36  31  82 CALM      29.80R
CLINTONVILLE   CLOUDY    36  32  87 CALM      29.80R
WAUTOMA        CLOUDY    39  34  82 NW6       29.80R
$$

WIZ038-039-048-051-231400-
FOX VALLEY

CITY           SKY/WX    TMP DP  RH WIND       PRES   REMARKS
NWS GREEN BAY  CLOUDY    39  35  86 N9        29.79R
APPLETON       MOCLDY    37  34  87 N6        29.75R
OSHKOSH        CLOUDY    40  36  86 N10       29.76S
FOND DU LAC    CLOUDY    41  36  82 N12       29.76R
$$

WIZ022-050-052-231400-
EAST CENTRAL WISCONSIN

CITY           SKY/WX    TMP DP  RH WIND       PRES   REMARKS
EPHRAIM        CLOUDY    33  32  94 N13G20    29.74R
WASHINGTON ISL CLOUDY    33  30  89 N14G21    29.72R
STURGEON BAY   CLOUDY    35  31  85 NW7       29.78
MANITOWOC      CLOUDY    39  34  82 NW10      29.77R
SHEBOYGAN      CLOUDY    40  37  89 N10       29.76R
$$

LMZ563-521-522-541>543-231400-
LAKESHORE

STATION/POSITION TIME  TEMP    WIND        PRES    VSBY  WAVE
                       AIR SEA DIR/SP/G                  HT/PER
                 (UTC) (F)     (DEG/KT/KT) (MB)    (MI)  (FT/S)
SHEBOYGAN LKSHOR 1300   40     340/ 12/ 13 1008.1R
KEWAUNEE LKSHORE 1248   38      20/  5/  9 1007.7R
NORTHPORT PIER   1240   34     330/ 16/ 19 1007.1R
SISTER BAY LKSHO 1220   34     350/ 18/ 21   N/A
CHAMBERS ISLAND  1240   34     320/ 12/ 15 1007.1R
MENOMINEE LKSHOR 1248   36     330/ 13/ 16 1007.1R
$$



USA.gov is the U.S. government's official web portal to all federal, state and local government web resources and services.